Flag for USA

Past Weather in Christopher Columbus Memorial Fountain, District of Columbia, USA — Yesterday and Last 2 Weeks

Now
57 °F

Mostly cloudy.


Feels Like: 54 °F
Forecast: 58 / 41 °F
Wind: 12 mph from Southwest

Location: Reagan National Airport

Current Time: Dec 10, 2019 at 8:39:03 am

Latest Report: Dec 10, 2019 at 7:52 am


Visibility: 10 mi

Pressure: 29.85 "Hg

Humidity: 87%

Dew Point: 53 °F

Location of Christopher Columbus Memorial FountainLocation

Past Weather in Christopher Columbus Memorial Fountain — Graph

°F

Christopher Columbus Memorial Fountain Temperature Yesterday

Maximum temperature yesterday: 52 °F (at 10:52 pm)
Minimum temperature yesterday: 44 °F (at 7:52 am)
Average temperature yesterday: 47 °F

High & Low Weather Summary for the Past Weeks

 TemperatureHumidityPressure
High62 °F (Nov 26, 2:52 pm)100% (Dec 2, 10:55 am)30.53 "Hg (Dec 2, 10:55 am)
Low31 °F (Dec 8, 3:52 am)34% (Nov 27, 10:52 pm)29.49 "Hg (Dec 1, 5:52 pm)
Average45 °F69%29.96 "Hg
* Reported Nov 25 6:52 am — Dec 10 6:52 am, Christopher Columbus Memorial Fountain. Weather by CustomWeather, © 2019

Note: Actual official high and low records may vary slightly from our data, if they occured in-between our weather recording intervals... More about our weather records

Christopher Columbus Memorial Fountain Weather History for the Previous 24 Hours

Scroll right to see more
 ConditionsComfort  
Time TempWeatherWind HumidityBarometerVisibility
6:52 am
Tue, Dec 10
56 °FMostly cloudy.16 mph87%29.82 "Hg10 mi
5:52 am55 °FOvercast.12 mph87%29.82 "Hg10 mi
4:52 am55 °FMostly cloudy.15 mph87%29.82 "Hg10 mi
3:52 am54 °FMostly cloudy.16 mph90%29.81 "Hg10 mi
2:52 am54 °FMostly cloudy.14 mph90%29.82 "Hg10 mi
1:52 am54 °FOvercast.20 mph90%29.82 "Hg10 mi
12:52 am53 °FOvercast.15 mph89%29.81 "Hg10 mi
11:52 pm
Mon, Dec 9
52 °FMostly cloudy.14 mph93%29.82 "Hg10 mi
10:52 pm52 °FOvercast.14 mph89%29.83 "Hg10 mi
9:52 pm51 °FLight rain. Overcast.18 mph92%29.83 "Hg10 mi
8:52 pm50 °FLight rain. Low clouds.16 mph93%29.83 "Hg10 mi
8:36 pm49 °FLight rain. Low clouds.13 mph97%29.85 "Hg10 mi
7:52 pm49 °FLight rain. Low clouds.15 mph93%29.84 "Hg10 mi
6:52 pm48 °FLight rain. Low clouds.15 mph93%29.84 "Hg10 mi
6:34 pm48 °FLight rain. Low clouds.12 mph93%29.85 "Hg10 mi
6:12 pm47 °FLight rain. Mostly cloudy.12 mph97%29.85 "Hg10 mi
5:52 pm47 °FLow clouds.14 mph97%29.85 "Hg10 mi
4:52 pm47 °FLow clouds.10 mph97%29.87 "Hg10 mi
3:52 pm47 °FLight rain. Mostly cloudy.10 mph93%29.90 "Hg8 mi
3:32 pm47 °FLight rain. Fog.8 mph93%29.91 "Hg2 mi
3:00 pm46 °FRain. Fog.10 mph96%29.91 "Hg3 mi
2:39 pm46 °FLight rain. Fog.10 mph96%29.92 "Hg5 mi
2:20 pm47 °FRain. Fog.8 mph93%29.93 "Hg3 mi
1:52 pm47 °FLight rain. Fog.12 mph93%29.96 "Hg4 mi
1:32 pm46 °FLight rain. Fog.8 mph96%29.97 "Hg6 mi
12:22 pm47 °FLight rain. Fog.10 mph93%30.02 "Hg4 mi
12:14 pm47 °FLight rain. Fog.9 mph93%30.03 "Hg4 mi
11:52 am47 °FRain. Fog.8 mph93%30.04 "Hg3 mi
11:29 am46 °FLight rain. Fog.9 mph96%30.06 "Hg3 mi
11:15 am46 °FRain. Fog.10 mph96%30.07 "Hg2 mi
10:52 am46 °FLight rain. Fog.10 mph96%30.08 "Hg3 mi
10:08 am46 °FLight rain. Fog.8 mph96%30.11 "Hg5 mi
9:52 am46 °FLight rain. Mostly cloudy.9 mph96%30.11 "Hg7 mi
9:31 am46 °FFog.10 mph96%30.11 "Hg4 mi
9:17 am46 °FFog.7 mph96%30.11 "Hg2 mi
8:52 am45 °FFog.7 mph100%30.09 "Hg1 mi
8:32 am44 °FFog.7 mph100%30.09 "Hg0 mi
Weather by CustomWeather, © 2019

See weather overview

Advertising